Location: Newark
(27.9675°N, 86.8869°E)
Time: 01:52:12
(UTC+00:00)

Courier 1B Rocket - Pass Details

Date: 28 October 2019
Orbit: 920 x 1202 km, 28.2° (Epoch: 12 November)

Event Time Altitude Azimuth Distance (km) Brightness Sun altitude
Exits shadow 22:15:11 61° 193° (SSW) 1,035 5.0 -28.3°
Drops below altitude 10° 22:21:13 10° 118° (ESE) 2,603 8.0 -27.0°
Sets 22:23:51 0° 115° (ESE) 3,554 9.0 -26.4°
